{"data":{"norad_id":56074,"intl_designator":"2023-043AE","name":"ONEWEB-0633","alt_names":[],"object_type":"PAYLOAD","status":"ACTIVE","operator":null,"country":"UK","launch_date":"2023-03-26","launch_site_code":"SRILR","launch_vehicle":null,"mission":null,"orbit_class":"UNKNOWN","rcs_meters":null,"size_class":null,"mass_kg":null,"dimensions":null,"purposes":["comms"],"wikipedia_slug":null,"has_3d_model":false,"image_url":null,"decayed_at":null,"tle_current":{"epoch":"2026-09-19T22:20:02.886144Z","epoch_age_seconds":67083,"freshness":"FRESH","line1":"1 56074U 23043AE  26262.93058896  .00000165  00000+0  40418-3 0  9991","line2":"2 56074  87.8994 240.3034 0001791  72.0845 288.0480 13.15548619168861","mean_motion":13.15548619,"eccentricity":0.0001791,"inclination_deg":87.8994,"raan_deg":240.3034,"arg_perigee_deg":72.0845,"mean_anomaly_deg":288.048,"bstar":0.00040418,"rev_number":16886,"period_min":109.46003661154,"perigee_km":1200.4129409858,"apogee_km":1203.1280638531,"semimajor_km":7579.9075024194,"source":"CELESTRAK","updated_at":"2026-09-20T09:00:44.792414Z"}}}